Погода Жангизтобе

Хотите узнать прогноз погоды Жангизтобе? Тогда Вам сюда: Погода Жангизтобе

Поиск расширенной информации на нашем сайте:

Полезная информация:

Новости сайта



02.01.2020
Опубликован Долгосрочный прогноз погоды по городам России и ближнего зарубежья на январь 2020 года.
Карты: Прогноз на январь и февраль 2020 года, Сравнение прогнозируемой аномалии приземной температуры воздуха на январь 2020 года по разным моделям.




Погода Жангизтобе - сегодня

Время (UTC), дата Ветер
(°,м/с) 
Видим.   Явления Облачность Т
(°С)
Тd
(°С)
f(%) Тe
(°С)
Pmin
(гПа)
dP
(гПа)
Po
(мм)
O2
(г/м3)
Тmin Tmax R s Состояние
почвы
12 22.10.21 220 (ЮЗ) 20000 м    9/4 1000 м средняя 
[Sc|Ac As]
+4.9 -2.6 58 +3  1029.6  1.5  731  289           
15 22.10.21 210 (ЮЗ) н/о    9/6 1000 м средняя 
[Sc|Ac As]
+4.1 -3 60 +2  1031.9  1.9  732  291    +6.2  0.9     
18 22.10.21 220 (ЮЗ) н/о    9/9 1000 м 
[Sc]
+3.9 -3.3 59 +2  1033.6  1.6  733  292    +6.2  0.9     
21 22.10.21 190 (Ю) н/о    9/6 1000 м средняя 
[Sc|Ac As]
+2.9 -1.8 71 +2  1034.5  0.6  734  293           
00 23.10.21 190 (Ю) н/о    8/4 1000 м средняя 
[Sc|Ac As]
+1.3 -3.8 69 1035.1  0.3  734  295           
03 23.10.21 200 (Ю) 20000 м  гроза, пыльная буря  8/8 1000 м средняя, верхняя 
[Sc|Ac As|Ci fib]
+2.3 -4.3 62 +1  1035.5  0.5  734  294           
06 23.10.21 190 (Ю) 20000 м    9/8 1000 м средняя 
[Sc|Ac As]
+4.9 -4.8 49 +2  1034  -0.9  734  291  +1         
09 23.10.21 210 (ЮЗ) 10{18}  20000 м    6/3 1000 м средняя, верхняя 
[Sc|Ac As|Ci fib]
+7.2 -3.6 46 +4  1032.3  -1.1  733  288           
12 23.10.21 200 (Ю) н/о    8/4 1000 м средняя 
[Sc|Ac und]
+6.2 -2.9 52 +5  1033  0.4  733  289           
15 23.10.21 200 (Ю) н/о    10/10 1000 м 
[Sc]
+5.8 -3.1 53 +4  1033.6  0.5  734  290    +7.4       
18 23.10.21 200 (Ю) 10{17}  н/о    10/10 1000 м 
[Sc]
+5.4 -1.3 62 +2  1033.3  -0.3  733  290    +7.4       
21 23.10.21 190 (Ю) н/о    10/10 1000 м 
[Sc]
+3.7 -1.5 69 1033.9  0.2  734  292           
00 24.10.21 190 (Ю) н/о    10/10 1000 м 
[Sc]
+4.3 -5.7 48 +2  1033.4  -0.4  733  291           
03 24.10.21 170 (Ю) 20000 м    9/6 1000 м средняя 
[Sc|Ac trans]
+5.1 -5.3 47 +3  1033.4  0.2  733  291           
06 24.10.21 190 (Ю) 20000 м    9/9 1000 м 
[Sc]
+8.5 -3.4 43 +6  1031.8  -0.9  733  287  +3.4         
09 24.10.21 190 (Ю) 20000 м    9/9 1000 м 
[Sc]
+10.6 -1.5 43 +9  1030.1  -1.2  732  284           
12 24.10.21 140 (ЮВ) н/о    8/6 1000 м верхняя 
[Sc|Ci fib]
+8.4 +0.2 56 +8  1030.6  0.1  732  286           
15 24.10.21 150 (ЮВ) н/о    6/3 1000 м верхняя 
[Sc|Ci fib]
+4.5 -4.6 52 +2  1030.9  -0.5  731  290    +11       
18 24.10.21 160 (Ю) н/о    ясно 
+3.1 -5.1 55 +1  1030.3  -0.7  731  292    +11       
21 24.10.21 130 (ЮВ) н/о    ясно 
+2.1 -4.9 60 +1  1028.9  -1.6  730  292           
00 25.10.21 120 (ЮВ) н/о    ясно 
+0.9 -2.9 76 +2  1027.4  -1.6  729  293           
03 25.10.21 150 (ЮВ) 20000 м    ясно 
+2.7 -3.4 64 +2  1026.2  -0.8  728  291           
06 25.10.21 130 (ЮВ) 20000 м    ясно 
+8.8 -3.2 43 +8  1002.3  -1.3  689  269  +0.6         
09 25.10.21 140 (ЮВ) 20000 м    3/0 средняя 
[Ac lent]
+12 -1.7 38 +11  1021  -1.8  726  280           
12 25.10.21 140 (ЮВ) н/о    ясно 
+10 -2.8 41 +10  1021.3  -0.1  726  282           
Время (UTC), дата Ветер
(°,м/с) 
Видим.   Явления Облачность Т
(°С)
Тd
(°С)
f(%) Тe
(°С)
Pmin
(гПа)
dP
(гПа)
Po
(мм)
O2
(г/м3)
Тmin Tmax R s Состояние
почвы

Для получения пояснительной информации подведите курсор к названию столбца.

ПОГОДА Жангизтобе - архив

Всё, что Вы хотите узнать о погоде Жангизтобе - удобно и подробно!

Выберите нужную дату (начиная с 1 января 2019* года) и нажмите кнопку "Найти".
Будут отображены архивные сводки погоды по пункту Жангизтобе, начиная с указанной даты.


Отображать данные в формате CSV (для использования в таблицах Excel)


Внимание! Наш архив погоды предназначен исключительно для личного некоммерческого использования в познавательных целях. Если Вам необходимы официальные справки о состоянии погоды (для производственных, юридических, коммерческих и т.п. целей), обращайтесь в органы Росгидромета.

*Примечание: данная дата относится к архиву по метеостанциям СССР (Россия, СНГ, Балтия).
Архив по метеостанциям Зарубежной Европы и Азии (кроме Китая) хранится 10 дней, по другим регионам земного шара (Китай, Африка, Америка, Австралия, Океания) - 1 день.

Жангизтобе - район местоположения метеостанции


Название, широта, долгота, высота метеостанции:
Жангизтобе 49.2°ш. 81.2°д. 455 м над ур. моря [Казахстан]

Дополнительная информация

В oтличие oт бoльшинства пoгoдных сайтoв мы публикуем пoдрoбную метеoинфoрмацию в детальнoм прoфессиoнальнoм фoрмате.

Характеристики температуры и влажнoсти вoздуха измеряются на высoте 2 м в тени вдали oт зданий и деревьев.
Скoрoсть ветра измеряется на высoте 10 м (на урoвне рoста челoвека скoрoсть ветра ниже в 1.5-2 раза). Если метеoстанция нахoдится в гoрoде или в лесу, тo скoрoсть ветра занижена на 2-4 м/с пo сравнению с oткрытым местoм. Скoрoсть ветра над акватoриями крупных рек и oзёр, а также на вершинах хoлмoв на 2-5 м/с выше, чем в oбычных услoвиях.
Атмoсфернoе давление в разных тoчках местнoсти мoжет значительнo oтличаться oт давления на метеoстанции, в зависимoсти oт услoвий рельефа (при пoдъёме на 10 м давление пoнижается примернo на 1 мм рт.ст.).